Weather History for Dover AFB, DE

Change the Weather History Date:

Thursday, August 29, 2013

  Actual Average Record
Temperature  
Mean Temperature 74 °F -  
Max Temperature 81 °F 85 °F 97 °F (1948)
Min Temperature 69 °F 65 °F 45 °F (1986)
Cooling Degree Days 10    
Growing Degree Days 24 (Base 50)    
Moisture  
Dew Point 72 °F    
Average Humidity 95    
Maximum Humidity 100    
Minimum Humidity 70    
Precipitation  
Precipitation 0.01 in - - ()
Sea Level Pressure  
Sea Level Pressure 29.90 in    
Wind  
Wind Speed 7 mph (NE)    
Max Wind Speed 16 mph    
Max Gust Speed -    
Visibility 8 miles    
Events Rain    
Averages and records for this station are not official NWS values.
T = Trace of Precipitation, MM = Missing Value Source: NWS Daily Summary

Daily Weather History Graph

Daily Weather History Graph

Search for Another Location

Airport:

Trip Planner

Search our weather history database for the weather conditions in past years. The results will help you decide how hot, cold, wet, or windy it might be!

Date:

Astronomy

Aug. 29, 2013 Rise Set
Actual Time 6:28 AM EDT 7:36 PM EDT
Civil Twilight 6:00 AM EDT 8:04 PM EDT
Nautical Twilight 5:27 AM EDT 8:36 PM EDT
Astronomical Twilight 4:53 AM EDT 9:11 PM EDT
Moon 12:19 AM EDT (8/29) 3:02 PM EDT (8/29)
Length of Visible Light 14h 03m
Length of Day
13h 08m
Last Quarter, 38% of the Moon is Illuminated
Aug 29
Last Quarter
Sep 5
New
Sep 12
First Quarter
Sep 19
Full
Sep 26
Last Quarter

Hourly Weather History & Observations

Time (EDT) Temp. Heat Index Dew Point Humidity Pressure Visibility Wind Dir Wind Speed Gust Speed Precip Events Conditions
12:08 AM 71.6 °F - 71.6 °F 100% 29.84 in 7.0 mi NE 4.6 mph - N/A   Overcast
12:10 AM 71.6 °F - 71.6 °F 100% 29.84 in 7.0 mi NE 3.5 mph - N/A   Light Drizzle
12:13 AM 71.6 °F - 71.6 °F 100% 29.84 in 7.0 mi NE 3.5 mph - N/A   Overcast
12:18 AM 71.6 °F - 71.6 °F 100% 29.84 in 7.0 mi NE 4.6 mph - N/A   Overcast
12:28 AM 71.6 °F - 71.6 °F 100% 29.83 in 7.0 mi NNE 1.2 mph - N/A   Overcast
12:33 AM 71.6 °F - 71.6 °F 100% 29.84 in 7.0 mi North 2.3 mph - N/A   Overcast
12:58 AM 72.0 °F - 72.0 °F 100% 29.85 in 7.0 mi North 2.3 mph - 0.00 in   Overcast
1:13 AM 71.6 °F - 71.6 °F 100% 29.84 in 6.0 mi North 3.5 mph - N/A   Overcast
1:23 AM 71.6 °F - 71.6 °F 100% 29.84 in 6.0 mi North 3.5 mph - N/A   Overcast
1:28 AM 71.6 °F - 71.6 °F 100% 29.84 in 6.0 mi Calm Calm - N/A   Overcast
1:39 AM 71.6 °F - 71.6 °F 100% 29.83 in 6.0 mi NE 4.6 mph - N/A   Light Drizzle
1:44 AM 71.6 °F - 71.6 °F 100% 29.84 in 6.0 mi NE 3.5 mph - N/A   Light Drizzle
1:49 AM 71.6 °F - 71.6 °F 100% 29.84 in 6.0 mi NE 4.6 mph - N/A   Light Drizzle
1:50 AM 71.6 °F - 71.6 °F 100% 29.84 in 6.0 mi NE 4.6 mph - N/A   Overcast
1:52 AM 71.6 °F - 71.6 °F 100% 29.84 in 6.0 mi NE 4.6 mph - N/A   Light Drizzle
1:57 AM 71.6 °F - 71.6 °F 100% 29.84 in 6.0 mi NNE 4.6 mph - N/A Rain Light Rain
1:58 AM 71.6 °F - 71.6 °F 100% 29.85 in 6.0 mi NNE 4.6 mph - 0.00 in Rain Light Rain
2:04 AM 71.6 °F - 71.6 °F 100% 29.84 in 8.0 mi NE 5.8 mph - N/A   Overcast
2:14 AM 71.6 °F - 71.6 °F 100% 29.84 in 9.0 mi NNE 5.8 mph - N/A   Mostly Cloudy
2:19 AM 71.6 °F - 71.6 °F 100% 29.84 in 9.0 mi NNE 4.6 mph - N/A   Mostly Cloudy
2:24 AM 71.6 °F - 71.6 °F 100% 29.84 in 9.0 mi NNE 4.6 mph - N/A   Mostly Cloudy
2:44 AM 71.6 °F - 71.6 °F 100% 29.84 in 9.0 mi NE 6.9 mph - N/A   Overcast
2:49 AM 71.6 °F - 71.6 °F 100% 29.84 in 10.0 mi NNE 6.9 mph - N/A   Overcast
2:58 AM 72.3 °F - 72.3 °F 100% 29.85 in 9.0 mi NE 8.1 mph - 0.00 in   Overcast
3:03 AM 71.6 °F - 71.6 °F 100% 29.84 in 10.0 mi NNE 6.9 mph - N/A   Overcast
3:08 AM 71.6 °F - 71.6 °F 100% 29.84 in 10.0 mi NE 5.8 mph - N/A   Overcast
3:13 AM 71.6 °F - 71.6 °F 100% 29.84 in 10.0 mi NE 6.9 mph - N/A   Overcast
3:18 AM 71.6 °F - 71.6 °F 100% 29.84 in 10.0 mi NE 6.9 mph - N/A   Overcast
3:58 AM 71.4 °F - 71.4 °F 100% 29.85 in 10.0 mi NE 6.9 mph - N/A   Mostly Cloudy
4:43 AM 71.6 °F - 71.6 °F 100% 29.85 in 10.0 mi NNE 10.4 mph - N/A   Mostly Cloudy
4:53 AM 71.6 °F - 71.6 °F 100% 29.85 in 10.0 mi NNE 8.1 mph - N/A   Mostly Cloudy
4:58 AM 71.1 °F - 71.1 °F 100% 29.86 in 10.0 mi North 6.9 mph - N/A   Mostly Cloudy
5:03 AM 71.6 °F - 71.6 °F 100% 29.86 in 9.0 mi NNE 6.9 mph - N/A   Overcast
5:08 AM 71.6 °F - 71.6 °F 100% 29.86 in 8.0 mi NNE 6.9 mph - N/A   Overcast
5:13 AM 71.6 °F - 71.6 °F 100% 29.86 in 7.0 mi NNE 10.4 mph - N/A   Overcast
5:18 AM 71.6 °F - 71.6 °F 100% 29.86 in 6.0 mi NNE 11.5 mph - N/A   Mostly Cloudy
5:28 AM 71.6 °F - 71.6 °F 100% 29.86 in 6.0 mi NE 9.2 mph - N/A   Overcast
5:33 AM 71.6 °F - 71.6 °F 100% 29.86 in 6.0 mi NE 12.7 mph - N/A   Overcast
5:43 AM 71.6 °F - 71.6 °F 100% 29.87 in 6.0 mi NE 9.2 mph - N/A   Overcast
5:50 AM 71.6 °F - 71.6 °F 100% 29.87 in 5.0 mi NE 12.7 mph - N/A   Light Drizzle
5:58 AM 72.1 °F - 72.1 °F 100% 29.88 in 5.0 mi NE 12.7 mph - 0.00 in   Light Drizzle
6:01 AM 71.6 °F - 71.6 °F 100% 29.87 in 5.0 mi NE 11.5 mph - N/A   Overcast
6:06 AM 71.6 °F - 71.6 °F 100% 29.88 in 5.0 mi NE 11.5 mph - N/A   Overcast
6:21 AM 71.6 °F - 71.6 °F 100% 29.88 in 6.0 mi NE 9.2 mph - N/A   Overcast
6:26 AM 71.6 °F - 71.6 °F 100% 29.88 in 5.0 mi NE 11.5 mph - N/A   Overcast
6:31 AM 71.6 °F - 71.6 °F 100% 29.88 in 5.0 mi NE 11.5 mph - N/A   Overcast
6:51 AM 73.4 °F - 73.4 °F 100% 29.89 in 7.0 mi NE 11.5 mph - N/A   Overcast
6:56 AM 73.4 °F - 73.4 °F 100% 29.89 in 7.0 mi NE 12.7 mph - N/A   Overcast
6:58 AM 72.5 °F - 72.5 °F 100% 29.90 in 7.0 mi NE 11.5 mph - 0.00 in   Overcast
7:58 AM 73.0 °F - 72.9 °F 99% 29.92 in 8.0 mi NE 9.2 mph - N/A   Overcast
8:08 AM 73.4 °F - 73.4 °F 100% 29.91 in 8.0 mi NNE 8.1 mph - N/A   Overcast
8:38 AM 75.2 °F - 75.2 °F 100% 29.92 in 8.0 mi NNE 9.2 mph - N/A   Mostly Cloudy
8:43 AM 75.2 °F - 75.2 °F 100% 29.92 in 8.0 mi NNE 10.4 mph - N/A   Mostly Cloudy
8:58 AM 74.5 °F - 74.1 °F 99% 29.94 in 9.0 mi NE 6.9 mph - 0.01 in   Mostly Cloudy
9:08 AM 75.2 °F - 75.2 °F 100% 29.93 in 9.0 mi NNE 8.1 mph - N/A   Overcast
9:18 AM 75.2 °F - 75.2 °F 100% 29.93 in 9.0 mi NNE 9.2 mph - N/A   Overcast
9:28 AM 75.2 °F - 75.2 °F 100% 29.94 in 9.0 mi NE 6.9 mph - N/A   Overcast
9:43 AM 75.2 °F - 75.2 °F 100% 29.94 in 10.0 mi NNE 6.9 mph - N/A   Overcast
9:58 AM 75.2 °F - 75.0 °F 99% 29.95 in 10.0 mi NE 9.2 mph - N/A   Overcast
10:03 AM 75.2 °F - 75.2 °F 100% 29.94 in 10.0 mi NNE 11.5 mph - N/A   Mostly Cloudy
10:13 AM 77.0 °F - 75.2 °F 94% 29.95 in 10.0 mi NE 10.4 mph - N/A   Mostly Cloudy
10:58 AM 79.0 °F - 74.3 °F 85% 29.96 in 10.0 mi NNE 13.8 mph - N/A   Mostly Cloudy
11:58 AM 79.7 °F - 73.2 °F 80% 29.97 in 10.0 mi NE 10.4 mph - N/A   Partly Cloudy
12:13 PM 80.6 °F 85.4 °F 73.4 °F 79% 29.96 in 10.0 mi ENE 12.7 mph - N/A   Mostly Cloudy
12:18 PM 80.6 °F 85.4 °F 73.4 °F 79% 29.96 in 10.0 mi NNE 10.4 mph - N/A   Mostly Cloudy
12:23 PM 80.6 °F 85.4 °F 73.4 °F 79% 29.96 in 10.0 mi NNE 11.5 mph - N/A   Scattered Clouds
12:58 PM 80.8 °F 85.4 °F 73.0 °F 77% 29.97 in 10.0 mi NNE 11.5 mph - N/A   Partly Cloudy
1:43 PM 78.8 °F - 73.4 °F 83% 29.97 in 10.0 mi ENE 16.1 mph - N/A   Mostly Cloudy
1:48 PM 78.8 °F - 73.4 °F 83% 29.97 in 10.0 mi ENE 13.8 mph - N/A   Scattered Clouds
1:58 PM 80.2 °F 84.5 °F 72.7 °F 78% 29.98 in 10.0 mi East 16.1 mph - N/A   Scattered Clouds
2:03 PM 78.8 °F - 71.6 °F 78% 29.97 in 10.0 mi ENE 15.0 mph - N/A   Mostly Cloudy
2:08 PM 78.8 °F - 73.4 °F 83% 29.97 in 10.0 mi ENE 16.1 mph - N/A   Scattered Clouds
2:58 PM 80.2 °F 83.9 °F 71.4 °F 74% 29.98 in 10.0 mi NE 12.7 mph - N/A   Partly Cloudy
3:58 PM 80.1 °F 83.0 °F 69.4 °F 70% 29.98 in 10.0 mi ENE 8.1 mph - N/A   Clear
4:58 PM 79.3 °F - 70.2 °F 73% 29.98 in 10.0 mi East 11.5 mph - N/A   Clear
5:58 PM 76.6 °F - 69.8 °F 79% 29.98 in 10.0 mi ESE 10.4 mph - N/A   Clear
6:58 PM 74.8 °F - 68.9 °F 82% 29.99 in 10.0 mi SE 9.2 mph - N/A   Partly Cloudy
7:58 PM 72.0 °F - 69.3 °F 91% 30.01 in 10.0 mi SE 4.6 mph - N/A   Scattered Clouds
8:03 PM 71.6 °F - 69.8 °F 94% 30.00 in 10.0 mi SE 4.6 mph - N/A   Mostly Cloudy
8:58 PM 72.7 °F - 69.1 °F 88% 30.03 in 10.0 mi East 8.1 mph - N/A   Overcast
9:18 PM 71.6 °F - 68.0 °F 88% 30.02 in 10.0 mi East 8.1 mph - N/A   Scattered Clouds
9:23 PM 71.6 °F - 68.0 °F 88% 30.02 in 10.0 mi East 8.1 mph - N/A   Scattered Clouds
9:58 PM 70.9 °F - 67.1 °F 88% 30.03 in 10.0 mi East 6.9 mph - N/A   Partly Cloudy
10:58 PM 69.1 °F - 66.9 °F 93% 30.03 in 10.0 mi East 3.5 mph - N/A   Clear
11:58 PM 69.4 °F - 67.5 °F 93% 30.03 in 10.0 mi SE 2.3 mph - N/A   Clear